Weather History for Valdosta Regional, GA

Change the Weather History Date:

Friday, April 25, 2014

  Actual Average Record
Temperature  
Mean Temperature 76 °F 68 °F  
Max Temperature 86 °F 82 °F 91 °F (2011)
Min Temperature 65 °F 55 °F 37 °F (2005)
Degree Days  
Heating Degree Days 0 1  
Month to date heating degree days 28 63  
Since 1 July heating degree days 1238 1629  
Cooling Degree Days 11 4  
Month to date cooling degree days 119 69  
Year to date cooling degree days 184 112  
Growing Degree Days 25 (Base 50)    
Moisture  
Dew Point 64 °F    
Average Humidity 69    
Maximum Humidity 87    
Minimum Humidity 51    
Precipitation  
Precipitation 0.02 in 0.07 in 1.00 in (1950)
Month to date precipitation 8.23 2.55  
Year to date precipitation 18.53 16.15  
Sea Level Pressure  
Sea Level Pressure 29.97 in    
Wind  
Wind Speed 2 mph (SSW)    
Max Wind Speed 9 mph    
Max Gust Speed 20 mph    
Visibility 8 miles    
Events      
T = Trace of Precipitation, MM = Missing Value Source: NWS Daily Summary

Daily Weather History Graph

Daily Weather History Graph

Search for Another Location

Airport:

Trip Planner

Search our weather history database for the weather conditions in past years. The results will help you decide how hot, cold, wet, or windy it might be!

Date:

Astronomy

Apr. 25, 2014 Rise Set
Actual Time 6:54 AM EDT 8:07 PM EDT
Civil Twilight 6:29 AM EDT 8:32 PM EDT
Nautical Twilight 5:59 AM EDT 9:03 PM EDT
Astronomical Twilight 5:28 AM EDT 9:34 PM EDT
Moon 4:25 AM EDT (4/25) 4:43 PM EDT (4/25)
Length of Visible Light 14h 03m
Length of Day
13h 12m
Waning Crescent, 15% of the Moon is Illuminated
Apr 25
Waning Crescent
Apr 29
New
May 6
First Quarter
May 14
Full
May 21
Last Quarter

Hourly Weather History & Observations

Time (EDT) Temp. Heat Index Dew Point Humidity Pressure Visibility Wind Dir Wind Speed Gust Speed Precip Events Conditions
12:53 AM 68.0 °F - 62.1 °F 81% 29.97 in 7.0 mi Calm Calm - N/A   Clear
1:35 AM 66.2 °F - 62.6 °F 88% 29.94 in 5.0 mi Calm Calm - N/A   Scattered Clouds
1:45 AM 68.0 °F - 62.6 °F 83% 29.93 in 4.0 mi South 3.5 mph - N/A   Haze
1:53 AM 68.0 °F - 63.0 °F 84% 29.95 in 4.0 mi Calm Calm - N/A   Haze
2:53 AM 69.1 °F - 64.0 °F 84% 29.95 in 6.0 mi SW 3.5 mph - N/A   Haze
3:00 AM 69.8 °F - 64.4 °F 83% 29.93 in 7.0 mi Variable 5.8 mph - N/A   Overcast
3:48 AM 69.8 °F - 64.4 °F 83% 29.95 in 8.0 mi Variable 3.5 mph - N/A   Overcast
3:53 AM 70.0 °F - 64.0 °F 81% 29.96 in 8.0 mi Variable 3.5 mph - N/A   Overcast
4:44 AM 68.0 °F - 62.6 °F 83% 29.97 in 8.0 mi Calm Calm - N/A   Mostly Cloudy
4:53 AM 69.1 °F - 63.0 °F 81% 29.99 in 9.0 mi Calm Calm - N/A   Mostly Cloudy
5:53 AM 68.0 °F - 62.1 °F 81% 29.98 in 8.0 mi Calm Calm - N/A   Overcast
6:53 AM 66.0 °F - 62.1 °F 87% 29.97 in 5.0 mi SSW 3.5 mph - N/A   Mostly Cloudy
7:00 AM 66.2 °F - 62.6 °F 88% 29.96 in 5.0 mi Calm Calm - N/A   Clear
7:21 AM 66.2 °F - 60.8 °F 83% 29.97 in 3.0 mi Calm Calm - N/A   Haze
7:32 AM 66.2 °F - 60.8 °F 83% 29.97 in 2.5 mi Calm Calm - N/A   Haze
7:39 AM 66.2 °F - 60.8 °F 83% 29.97 in 3.0 mi South 3.5 mph - N/A   Haze
7:53 AM 66.9 °F - 62.1 °F 84% 30.00 in 4.0 mi Calm Calm - N/A   Haze
8:00 AM 66.2 °F - 62.6 °F 88% 29.98 in 4.0 mi Calm Calm - N/A   Haze
8:08 AM 68.0 °F - 62.6 °F 83% 29.99 in 4.0 mi Calm Calm - N/A   Haze
8:15 AM 68.0 °F - 62.6 °F 83% 30.00 in 4.0 mi Calm Calm - N/A   Haze
8:53 AM 70.0 °F - 64.0 °F 81% 30.02 in 6.0 mi Calm Calm - N/A   Haze
9:30 AM 73.4 °F - 64.4 °F 73% 30.00 in 10.0 mi Variable 4.6 mph - N/A   Overcast
9:53 AM 73.0 °F - 64.0 °F 73% 30.02 in 10.0 mi Variable 4.6 mph - N/A   Overcast
10:37 AM 77.0 °F - 64.4 °F 65% 30.00 in 10.0 mi Variable 5.8 mph - N/A   Overcast
10:53 AM 78.1 °F - 64.0 °F 62% 30.01 in 10.0 mi Variable 4.6 mph - N/A   Overcast
11:53 AM 81.0 °F 82.5 °F 64.0 °F 56% 30.01 in 10.0 mi Variable 4.6 mph - N/A   Overcast
12:53 PM 79.0 °F - 64.9 °F 62% 29.99 in 10.0 mi Variable 3.5 mph - N/A   Overcast
1:00 PM 78.8 °F - 64.4 °F 61% 29.97 in 10.0 mi Calm Calm - N/A   Overcast
1:53 PM 79.0 °F - 66.0 °F 64% 29.99 in 10.0 mi Calm Calm - N/A   Overcast
2:53 PM 78.1 °F - 68.0 °F 71% 29.97 in 10.0 mi SW 3.5 mph - 0.02 in   Overcast
3:53 PM 84.9 °F 86.6 °F 64.9 °F 51% 29.94 in 10.0 mi Variable 4.6 mph - N/A   Partly Cloudy
4:53 PM 84.9 °F 86.1 °F 64.0 °F 49% 29.93 in 10.0 mi Variable 4.6 mph - N/A   Mostly Cloudy
5:53 PM 84.9 °F 86.6 °F 64.9 °F 51% 29.92 in 10.0 mi Variable 6.9 mph - N/A   Scattered Clouds
6:53 PM 82.9 °F 84.6 °F 64.9 °F 54% 29.92 in 10.0 mi Variable 3.5 mph - N/A   Clear
7:53 PM 79.0 °F - 66.9 °F 66% 29.93 in 10.0 mi Calm Calm - N/A   Partly Cloudy
8:53 PM 73.9 °F - 66.0 °F 76% 29.94 in 10.0 mi Calm Calm - N/A   Clear
9:53 PM 73.0 °F - 66.0 °F 79% 29.94 in 10.0 mi SSW 3.5 mph - N/A   Clear
10:53 PM 73.0 °F - 66.9 °F 81% 29.96 in 10.0 mi SSW 3.5 mph - N/A   Clear
11:53 PM 72.0 °F - 66.0 °F 81% 29.97 in 10.0 mi Calm Calm - N/A   Scattered Clouds